Tracking 29781 objects as of 15-Oct-2024
HD Live streaming from Space Station
objects crossing your sky now

DELTA 1 DEB

Track DELTA 1 DEB now!
10-day predictions


NORAD ID: 21754
Int'l Code: 1975-052JQ
Perigee: 1,077.5 km
Apogee: 1,192.7 km
Inclination: 100.0 °
Period: 107.9 minutes
Semi major axis: 7506 km
RCS: 0.011 m2 (small)
Launch date: June 12, 1975
Source: United States (US)
Launch site: AIR FORCE WESTERN TEST RANGE (AFWTR)

Note: This is SATELLITE DEBRIS
Your satellite tracking list
Your tracking list is empty




NASA's NSSDC Master Catalog

Two Line Element Set (TLE):
1 21754U 75052JQ  24288.57052733  .00000448  00000-0  95963-3 0  9995
2 21754 100.0243 212.7166 0076684 341.9585 192.6146 13.34999549615807
Source of the keplerian elements: AFSPC